Portage, MI

12:39 PM EDT on August 25, 2016 (GMT -0400)
Kalamazoo-Battle Creek International

Weather History for KAZO - September, 2013

Change the Weather History Date:

Tuesday, September 17, 2013

  Actual Average Record
Temperature  
Mean Temperature 56 °F 62 °F  
Max Temperature 70 °F 73 °F 93 °F (1955)
Min Temperature 41 °F 52 °F 33 °F (1959)
Degree Days  
Heating Degree Days 9 4  
Month to date heating degree days 54 40  
Since 1 July heating degree days 91 56  
Cooling Degree Days 0 1  
Month to date cooling degree days 75 45  
Year to date cooling degree days 703 656  
Growing Degree Days 6 (Base 50)    
Moisture  
Dew Point 44 °F    
Average Humidity 65    
Maximum Humidity 89    
Minimum Humidity 40    
Precipitation  
Precipitation 0.00 in 0.12 in 1.10 in (1973)
Month to date precipitation 1.33 2.25  
Year to date precipitation 30.42 25.84  
Sea Level Pressure  
Sea Level Pressure 30.33 in    
Wind  
Wind Speed 3 mph (SE)    
Max Wind Speed 9 mph    
Max Gust Speed 14 mph    
Visibility 10 miles    
Events      
T = Trace of Precipitation, MM = Missing Value Source: NWS Daily Summary

Daily Weather History Graph

Daily Weather History Graph

Search for Another Location

Airport or City:

Trip Planner

Search our weather history database for the weather conditions in past years. The results will help you decide how hot, cold, wet, or windy it might be!

Date:

Astronomy

Sep. 17, 2013 Rise Set
Actual Time 7:24 AM EDT 7:47 PM EDT
Civil Twilight 6:56 AM EDT 8:15 PM EDT
Nautical Twilight 6:23 AM EDT 8:48 PM EDT
Astronomical Twilight 5:49 AM EDT 9:22 PM EDT
Moon 6:35 PM EDT (9/17) 5:16 AM EDT (9/17)
Length of Visible Light 13h 19m
Length of Day
12h 23m
Waxing Gibbous, 96% of the Moon is Illuminated
Sep 17
Waxing Gibbous
Sep 19
Full
Sep 26
Last Quarter
Oct 4
New
Oct 11
First Quarter

Hourly Weather History & Observations

Time (EDT) Temp. Windchill Dew Point Humidity Pressure Visibility Wind Dir Wind Speed Gust Speed Precip Events Conditions
12:53 AM 46.9 °F - 42.1 °F 83% 30.39 in 10.0 mi Calm Calm - N/A   Clear
1:53 AM 46.9 °F - 41.0 °F 80% 30.39 in 10.0 mi Calm Calm - N/A   Clear
2:53 AM 45.0 °F 43.5 °F 41.0 °F 86% 30.40 in 10.0 mi East 3.5 mph - N/A   Clear
3:53 AM 44.1 °F - 41.0 °F 89% 30.40 in 10.0 mi Calm Calm - N/A   Clear
4:53 AM 43.0 °F - 39.9 °F 89% 30.40 in 10.0 mi Calm Calm - N/A   Clear
5:53 AM 43.0 °F - 39.0 °F 86% 30.40 in 10.0 mi Calm Calm - N/A   Clear
6:53 AM 42.1 °F - 39.0 °F 89% 30.40 in 10.0 mi Calm Calm - N/A   Clear
7:53 AM 42.1 °F - 39.0 °F 89% 30.41 in 10.0 mi Calm Calm - N/A   Clear
8:53 AM 48.0 °F - 43.0 °F 83% 30.41 in 10.0 mi Variable 3.5 mph - N/A   Clear
9:53 AM 53.1 °F - 46.0 °F 77% 30.41 in 10.0 mi Calm Calm - N/A   Clear
10:53 AM 57.9 °F - 45.0 °F 62% 30.40 in 10.0 mi SSE 4.6 mph - N/A   Clear
11:53 AM 60.1 °F - 46.0 °F 60% 30.39 in 10.0 mi Variable 5.8 mph - N/A   Clear
12:53 PM 62.1 °F - 46.9 °F 58% 30.36 in 10.0 mi South 6.9 mph - N/A   Clear
1:53 PM 64.9 °F - 45.0 °F 48% 30.34 in 10.0 mi Variable 3.5 mph - N/A   Clear
2:53 PM 66.0 °F - 45.0 °F 47% 30.31 in 10.0 mi South 6.9 mph - N/A   Clear
3:53 PM 69.1 °F - 44.1 °F 40% 30.28 in 10.0 mi Variable 4.6 mph - N/A   Clear
4:53 PM 68.0 °F - 44.1 °F 42% 30.26 in 10.0 mi SE 4.6 mph - N/A   Clear
5:53 PM 68.0 °F - 45.0 °F 43% 30.25 in 10.0 mi SE 4.6 mph - N/A   Clear
6:53 PM 64.9 °F - 48.0 °F 54% 30.23 in 10.0 mi ESE 3.5 mph - N/A   Clear
7:53 PM 61.0 °F - 48.9 °F 64% 30.22 in 10.0 mi Calm Calm - N/A   Clear
8:53 PM 57.9 °F - 48.9 °F 72% 30.23 in 10.0 mi East 4.6 mph - 0.00 in   Clear
9:53 PM 57.0 °F - 48.9 °F 74% 30.22 in 10.0 mi ESE 4.6 mph - N/A   Clear
10:53 PM 57.0 °F - 48.9 °F 74% 30.22 in 10.0 mi SE 3.5 mph - N/A   Clear
11:53 PM 55.9 °F - 48.0 °F 75% 30.22 in 10.0 mi Calm Calm - N/A   Clear